Simultaneous Nadir Overpasses (SNOs) Predictions

Prediction of SNOs between METOP-B and NOAA-19 Satellite Orbit:

Table of predicted SNOs for the next 14.0 days since TLE Epoch: 4/19/2025
Index Date (METOP-B) Time (METOP-B) Lat,Lon (METOP-B) SZA (METOP-B ) Date (NOAA-19) Time (NOAA-19) Lat,Lon (NOAA-19) SZA (NOAA-19 ) Distance(km) Time Diff (sec)
1 04/29/2025 21:44:08 -80.87, 102.06 107.90 04/29/2025 21:42:53 -80.87, 101.93 107.97 2.16 75
2 04/29/2025 22:34:49 80.87, -90.60 72.09 04/29/2025 22:33:53 80.86, -90.45 72.08 3.00 56
3 04/29/2025 23:25:29 -80.86, 76.93 107.89 04/29/2025 23:24:48 -80.85, 77.02 107.91 1.64 41
4 04/30/2025 00:16:10 80.86,-115.73 72.10 04/30/2025 00:15:49 80.85,-115.73 72.09 0.50 21
5 04/30/2025 01:06:50 -80.84, 51.81 107.89 04/30/2025 01:06:44 -80.84, 51.74 107.90 1.19 6
6 04/30/2025 01:57:30 80.82,-140.50 72.16 04/30/2025 01:57:44 80.83,-140.65 72.15 2.86 14
7 04/30/2025 02:48:11 -80.83, 26.69 107.88 04/30/2025 02:48:39 -80.82, 26.83 107.84 2.56 28
8 04/30/2025 03:38:52 80.83,-165.97 72.12 04/30/2025 03:39:40 80.82,-165.93 72.15 0.92 48



Historial Predications of SNOs between METOP-B and NOAA-19
